CZ-4B DEB, 43431

Orbit data source: Space-Track

CZ-4B DEB, 43431 is space debris in LEO originally from a launch on Thu, 15 Jun 2017 UTC launched from the Jiuquan Satellite Launch Center, China (JSC). Debris objects in space refer to the collection of defunct objects orbiting the Earth. Examples of debris include non-operational satellites, rocket bodies, and fragments generated from explosions, collisions, or faulty payload assembly.

Loading next visibility...
Identifier
43431, 2017-034G
Orbit
LEO
Last TLE update
2 days ago
Origin
Manufacturer
SAST
Mission
Spacecraft
Bus & Motor
Unknown
Mass
Unknown
Launch date (UTC)
2017-06-15 (8 years ago)
Launch vehicle
Unknown
Launch site
Jiuquan Satellite Launch Center, China (JSC)
Object type
Payload
Rocket body
Debris
Shape & HBR
Unknown
Radar Cross Section
Small (<0.1 m²)

Expand to show TLE details & history

TLE from 2 days ago
0 CZ-4B DEB
1 43431U 17034G   25182.12297155  .00005861  00000-0  49597-3 0  9997
2 43431  43.0844  97.3879 0128140 241.9066 116.8770 14.92542261427534
Epoch: 2025-07-01T02:57Z
TLE epoch observation values (Epoch: 2025-07-01T02:57:04.741Z)
Latitude
-0.00006°
Longitude
133.69513°
Altitude
631.062 km
Speed
7.522 km/s
True Right ascension
06h 29m 33s
True Declination
0° 00' 00"
Sunlit
Object was in daylight at epoch
Visualization orbit readout
Latitude
36.28659°
Longitude
-108.49367°
Altitude
653.085 km
Speed
7.503 km/s
Apparent Right ascension
10h 41m 37s
Apparent Declination
2° 21' 34"
Sunlit
Object is in daylight
Visualization observer readout
Local Sidereal Time
15:26:11
Azimuth
259.476° W
Elevation
15.909°
Doppler factor
1
Orbital elements
Apogee altitude
681.228 km
Perigee altitude
502.6 km
Semi-major axis
6,970.051 km
Eccentricity
0.01281
Inclination
43.0844°
RAAN
97.3879°
Arg. of periapsis
241.9066°
True anomaly
Unknown
Mean anomaly
116.877°
Eccentric anomaly
Unknown
Mean motion
3.72983 °/min
Orbital period
96.52 mins
BSTAR
0.00049597
Loading maneuver chart data...
Loading SW <> Apogee altitude chart data...
Loading historical data...
Loading historical data...
Loading historical data...
Loading historical data...
Loading historical data...
Loading historical data...
Loading historical data...

CZ-4B DEB Visibility forecast

Observer location: undefined°, undefined°

Span
Click to sort rows by Start time (UTC) header in descending order
Start Az.
Max El. time (UTC)
Max El. Az.
Max El.
End time (UTC)
End Az.
6 mins2025-07-03 03:40:58.307Z259.112° W2025-07-03 03:43:58.307Z208.022° SW21.646°2025-07-03 03:46:58.307Z165.915° S
7 mins2025-07-03 21:01:58.307Z221.824° SW2025-07-03 21:04:58.307Z138.872° SSE39.377°2025-07-03 21:08:58.307Z76.948° E
8 mins2025-07-03 22:42:58.307Z271.539° WNW2025-07-03 22:45:58.307Z331.047° NNW42.218°2025-07-03 22:50:58.307Z73.015° E
7 mins2025-07-04 00:24:58.307Z291.703° WNW2025-07-04 00:27:58.307Z4.614° NNE42.121°2025-07-04 00:31:58.307Z89.133° E
8 mins2025-07-04 02:05:58.307Z281.659° WNW2025-07-04 02:09:58.307Z180.824° SSW39.724°2025-07-04 02:13:58.307Z128.213° SE
|